Location: Hylvaty SDH
(49.9612°N, 16.4057°E)
Time: 08:01:24
(UTC+02:00)

Transit 2A Rocket - Pass Details

Date: 14 July 2020
Orbit: 584 x 919 km, 66.7° (Epoch: 13 August)

Event Time Altitude Azimuth Distance (km) Brightness Sun altitude
Rises 22:06:37 0° 316° (NW) 3,568 10.9 -8.9°
Reaches altitude 10° 22:09:35 10° 304° (NW) 2,616 9.2 -9.2°
Maximum altitude 22:14:26 25° 252° (WSW) 1,728 7.1 -9.7°
Drops below altitude 10° 22:19:07 10° 199° (SSW) 2,515 7.4 -10.1°
Enters shadow 22:21:25 - 188° (S) 3,233 7.8 -10.3°
